Starlink 32648

operational
NORAD ID: 62301 Int'l Des: 2024-239 Owner: SPXS Country: US Constellation: starlink
LEOCIRCULAR

About Starlink 32648

Description loading...

Live Position

Loading 3D Globe...

Upcoming Passes

Altitude History

Altitude vs Time

uPlot chart will show altitude changes over time

Two-Line Element Set

1 62301U 24239A 25352.84565456 .00020127 00000-0 68978-3 0 9995
2 62301 53.1579 196.8436 0001077 91.5206 268.5919 15.30201966 57183
Epoch: Dec 18, 2025 • Age: 8 hours

Current Status

Altitude 493.1 km
Velocity 7.62 km/s
Sub-Earth Point -50.02°S, 12.57°W
Launch Date Dec 13, 2024
Age 1 years
Type internet

Technical Details

Classification Payload
Mass 730.00 kg
Dry Mass 700.00 kg
Total Mass 730.00 kg
Length 0.30 m
Diameter 4.10 m
Span 29.00 m
Shape Box + pan
Manufacturer SPXS
Bus Type Starlink V2M
Phase Status In Orbit
Owner/State SPXS/US

Large Constellations

Loading constellations...